[[{"header":{"parameterUnit":"m.s-1","parameterCategory":1,"la1":30.2991,"la2":30.254,"lo1":-89.0895,"lo2":-89.0444,"dy":0.0017,"dx":0.0017,"nx":28,"ny":28,"refTime":"2025-06-01T09:00:00:Z","depth":0,"parameterNumber":2,"parameterNumberName":"U-component_of_WINDS"},"data":[0,0,0,0,0,0,0,0,0,0,0,0,0,0,0,0,0,0,0,0,0,0,0,0,0,0,0,0,0,0,0,0,0,0,0,0,0,0,0,0,0,0,0,0,0,0,0,0,0,0,0,0,0,0,0,0,0,0,0.7696,0.7697,0,0.7785,0.7786,0.7787,0.7857,0.7857,0.7858,0.7859,0.7953,0.7954,0.7956,0,0,0,0,0,0,0,0,0,0,0,0,0,0.7588,0.759,0.7696,0.7697,0.7698,0.7785,0.7786,0.7787,0.7857,0.7857,0.7858,0.7859,0.7952,0.7954,0.7957,0,0,0,0,0,0,0,0,0,0,0,0,0,0.7652,0.759,0.7696,0.7743,0.7748,0.7785,0.7786,0.7788,0.7856,0.7857,0.7858,0.7859,0.7951,0.7954,0.7957,0.7954,0,0,0.7965,0.7967,0,0,0,0,0,0,0,0,0.7648,0.7656,0.7735,0.774,0.7746,0.7811,0.7783,0.7844,0.7856,0.7815,0.7859,0.786,0.7905,0.7912,0.7926,0.7958,0.7963,0.7966,0.7967,0.7969,0.7969,0,0,0,0,0,0,0,0.7644,0.7652,0.7731,0.7736,0.7743,0.7761,0.7771,0.7794,0.7854,0.7819,0.7824,0.7834,0.7908,0.7923,0.7929,0.7964,0.7966,0.7968,0.797,0.7971,0.7999,0.7998,0,0,0,0,0,0,0.7632,0.7648,0.7728,0.7734,0.7698,0.7762,0.7773,0.7789,0.7853,0.7864,0.7833,0.7837,0.7918,0.7925,0.7932,0.7934,0.7969,0.7971,0.7973,0.8,0.7998,0.7997,0,0,0,0,0,0,0.7629,0.7638,0.7725,0.7693,0.7705,0.7763,0.778,0.779,0.7805,0.7864,0.7875,0.7837,0.7919,0.7928,0.7948,0.7938,0.7972,0.7975,0.8001,0.7999,0.7998,0.7935,0,0,0,0,0,0,0.7626,0.7637,0.7636,0.7692,0.7706,0.7738,0.7779,0.7791,0.781,0.7816,0.7871,0.7881,0.7921,0.7943,0.7951,0.7942,0.7977,0.8002,0.8,0.7998,0.7939,0.7932,0.7926,0,0,0,0,0,0.7621,0.7615,0.7635,0.7645,0.7706,0.7737,0.7746,0.779,0.7809,0.7809,0.7846,0.7879,0.7937,0.7945,0.7954,0.7946,0.8003,0.8001,0.7999,0.7941,0.7933,0.7926,0,0,0,0,0,0,0.7557,0.7623,0.7646,0.7658,0.7691,0.7749,0.775,0.778,0.781,0.7814,0.7869,0.7881,0.7895,0.7923,0.7929,0.7947,0.7975,0.7974,0.7928,0.7921,0.7915,0.7908,0.798,0,0,0,0,0,0.7544,0.7563,0.762,0.7625,0.764,0.7692,0.7707,0.7739,0.7776,0.7791,0.783,0.7865,0.7891,0.7908,0.7935,0.7943,0.7956,0.7942,0.7936,0.793,0.7929,0.7936,0.793,0.799,0.799,0.799,0,0,0.7518,0.7556,0.7565,0.7613,0.7642,0.7661,0.7704,0.7722,0.7737,0.7794,0.7814,0.7844,0.7887,0.7901,0.7909,0.7924,0.7916,0.7928,0.7923,0.7925,0.7933,0.7927,0.7922,0.7989,0.7989,0.7989,0,0,0.7479,0.751,0.7517,0.7546,0.759,0.7624,0.7626,0.7679,0.77,0.7722,0.7765,0.7784,0.7828,0.7857,0.7877,0.7849,0.7881,0.7857,0.7825,0.783,0.7825,0.7821,0.7812,0.7807,0.7856,0.7855,0.7855,0,0.7441,0.7471,0.7518,0.7533,0.7553,0.7604,0.7612,0.7638,0.7689,0.7702,0.7718,0.7774,0.7807,0.7828,0.7821,0.7836,0.784,0.7851,0.7822,0.7819,0.7816,0.7807,0.7803,0.7852,0.7852,0.7853,0.7853,0,0.7422,0.7442,0.7443,0.7489,0.7509,0.7521,0.757,0.7585,0.7614,0.7647,0.7668,0.7709,0.7746,0.7753,0.7783,0.7778,0.7787,0.7812,0.7841,0.7806,0.7799,0.7796,0.7847,0.7849,0.785,0.785,0,0,0.7346,0.7418,0.7417,0.7439,0.7491,0.7508,0.7522,0.7557,0.7569,0.7602,0.7616,0.7651,0.7675,0.7698,0.7731,0.7736,0.7711,0.7761,0.7763,0.775,0.7709,0.769,0.7685,0.7732,0.7732,0.7731,0.7705,0,0.7316,0.7344,0.7386,0.74,0.7419,0.7468,0.748,0.7514,0.7545,0.7566,0.7601,0.7625,0.7654,0.7668,0.7675,0.7712,0.7703,0.7715,0.7746,0.7747,0.7734,0.7681,0.7661,0.7635,0.7703,0.7702,0.7702,0,0.7285,0.7315,0.733,0.738,0.739,0.74,0.7436,0.7455,0.7494,0.7516,0.7542,0.7577,0.7596,0.7621,0.7647,0.7654,0.767,0.769,0.769,0.7695,0.7722,0.7685,0.7628,0.7623,0.7698,0.7698,0.7699,0,0.7228,0.7272,0.7287,0.7304,0.7363,0.7369,0.7394,0.7434,0.7452,0.7483,0.7496,0.7529,0.7547,0.7572,0.7615,0.763,0.7637,0.7666,0.7656,0.7655,0.7656,0.7655,0.76,0.7665,0.7665,0.7665,0.7665,0,0.7191,0.7198,0.7262,0.7271,0.7282,0.733,0.7339,0.7369,0.7404,0.742,0.7464,0.7479,0.7536,0.7557,0.7591,0.7608,0.7616,0.7635,0.7644,0.7631,0.7628,0.7642,0.7645,0.7664,0.7664,0.7665,0.7665,0,0.7129,0.7172,0.7192,0.7246,0.7259,0.7264,0.7311,0.7322,0.7355,0.7375,0.7383,0.7435,0.7462,0.7508,0.7549,0.7572,0.7582,0.7598,0.7569,0.7574,0.7562,0.7562,0.7513,0.751,0.7576,0.7575,0.7575,0,0.7103,0.7109,0.7164,0.7177,0.72,0.7222,0.724,0.7288,0.7306,0.7351,0.7356,0.7387,0.7414,0.7455,0.7498,0.7529,0.7546,0.7526,0.7551,0.7537,0.7546,0.7545,0.7546,0.7521,0.752,0.7519,0.7518,0,0.7051,0.7071,0.7096,0.7128,0.7148,0.7176,0.7206,0.7214,0.7269,0.7287,0.7315,0.7335,0.7377,0.7407,0.7444,0.7471,0.7504,0.751,0.751,0.7497,0.748,0.7489,0.7554,0.7511,0.7512,0.7513,0.7513,0.7513,0.7006,0.7014,0.7054,0.7079,0.7107,0.7133,0.7146,0.7181,0.7205,0.7241,0.7268,0.7294,0.7334,0.7387,0.7412,0.7433,0.7448,0.7447,0.7447,0.7446,0.7441,0.7476,0.744,0.744,0.7441,0.7441,0.7441,0,0.6957,0.6984,0.7007,0.7047,0.7067,0.7096,0.713,0.7145,0.7167,0.7201,0.7226,0.7258,0.7287,0.7331,0.7364,0.7372,0.7388,0.7379,0.7379,0.7385,0.7426,0.7423,0.7366,0.7366,0.7366,0.7366,0.7366,0.7366,0.6933,0.6949,0.6974,0.7004,0.7032,0.7056,0.7074,0.7099,0.7126,0.7159,0.7183,0.7211,0.7249,0.7285,0.7313,0.7325,0.7335,0.7321,0.7338,0.7375,0.7382,0.7389,0.7387,0.7323,0.7323,0.7296,0.7296,0.7295]},{"header":{"parameterUnit":"m.s-1","parameterCategory":1,"la1":30.2991,"la2":30.254,"lo1":-89.0895,"lo2":-89.0444,"dy":0.0017,"dx":0.0017,"nx":28,"ny":28,"refTime":"2025-06-01T09:00:00:Z","depth":0,"parameterNumber":3,"parameterNumberName":"V-component_of_WINDS"},"data":[0,0,0,0,0,0,0,0,0,0,0,0,0,0,0,0,0,0,0,0,0,0,0,0,0,0,0,0,0,0,0,0,0,0,0,0,0,0,0,0,0,0,0,0,0,0,0,0,0,0,0,0,0,0,0,0,0,0,2.0234,2.0234,0,2.0178,2.0178,2.0177,2.0165,2.0165,2.0166,2.0166,2.0105,2.0103,2.0101,0,0,0,0,0,0,0,0,0,0,0,0,0,2.0325,2.0324,2.0234,2.0233,2.0233,2.0178,2.0178,2.0177,2.0165,2.0165,2.0166,2.0166,2.0106,2.0104,2.0101,0,0,0,0,0,0,0,0,0,0,0,0,0,2.0279,2.0323,2.0234,2.022,2.0218,2.0179,2.0178,2.0177,2.0165,2.0165,2.0166,2.0167,2.0107,2.0104,2.0101,2.007,0,0,2.0092,2.009,0,0,0,0,0,0,0,0,2.0282,2.0276,2.0223,2.0221,2.0219,2.0179,2.0188,2.0141,2.0165,2.0185,2.0166,2.0167,2.0129,2.0124,2.0112,2.0067,2.0064,2.0091,2.009,2.0088,2.0087,0,0,0,0,0,0,0,2.0285,2.0278,2.0212,2.0222,2.022,2.0215,2.0209,2.0179,2.0154,2.0183,2.0182,2.0176,2.0128,2.0115,2.0111,2.0064,2.0092,2.0089,2.0087,2.0086,1.9986,1.9986,0,0,0,0,0,0,2.0291,2.0281,2.0214,2.021,2.0253,2.0213,2.0206,2.0191,2.0155,2.015,2.0176,2.0176,2.012,2.0114,2.0109,2.0068,2.0088,2.0086,2.0084,1.9987,1.9986,1.9985,0,0,0,0,0,0,2.0293,2.0286,2.0216,2.0245,2.0236,2.0211,2.0194,2.019,2.0177,2.0149,2.0144,2.0167,2.012,2.0113,2.0079,2.0066,2.0084,2.0081,1.9988,1.9987,1.9986,1.9987,0,0,0,0,0,0,2.0296,2.0286,2.0276,2.0245,2.0235,2.0189,2.0193,2.0188,2.0172,2.0172,2.014,2.0135,2.012,2.0084,2.0076,2.0062,2.0079,1.9989,1.9988,1.9986,1.9988,1.9986,1.9984,0,0,0,0,0,2.0299,2.0278,2.0275,2.0267,2.0221,2.0188,2.0182,2.0167,2.0171,2.0159,2.0141,2.0136,2.0069,2.008,2.0072,2.0056,1.999,1.9988,1.9986,1.9989,1.9986,1.9984,0,0,0,0,0,0,2.0307,2.0274,2.027,2.0239,2.0217,2.0186,2.0171,2.0165,2.014,2.0141,2.0122,2.0115,2.0081,2.0066,2.0079,2.0023,2.0029,2.0026,2.0034,2.0032,2.003,2.0034,2.0077,0,0,0,0,0,2.0305,2.0283,2.0255,2.0229,2.0219,2.0197,2.0182,2.0172,2.0148,2.0138,2.0117,2.0092,2.0065,2.0048,2.0021,1.9986,1.9977,1.9971,1.9969,1.9968,1.9964,1.9941,1.9937,1.9979,1.9979,1.9979,0,0,2.0301,2.028,2.0267,2.023,2.0212,2.0187,2.0189,2.0163,2.0144,2.0133,2.01,2.0084,2.0054,2.0019,2.0002,2.0005,1.995,1.9965,1.9964,1.9961,1.9939,1.9935,1.9931,1.9978,1.9978,1.9978,0,0,2.028,2.0263,2.0239,2.0221,2.0193,2.0178,2.0172,2.0142,2.0131,2.0097,2.0088,2.0064,2.0019,1.9998,1.9981,1.995,1.9943,1.9942,1.9931,1.9909,1.9906,1.9903,1.9889,1.9885,1.9939,1.9939,1.9939,0,2.0278,2.0242,2.0228,2.0202,2.0185,2.0175,2.0149,2.0131,2.0095,2.0083,2.0086,2.0028,2.0008,1.9966,1.9958,1.9946,1.9936,1.9945,1.9908,1.9904,1.9901,1.9888,1.9883,1.9938,1.9939,1.9939,1.9939,0,2.024,2.0214,2.0198,2.0164,2.0146,2.012,2.01,2.0082,2.0073,2.0057,2.0021,1.9997,1.9964,1.9954,1.9945,1.991,1.9912,1.9912,1.9918,1.9897,1.9884,1.988,1.9938,1.9938,1.9938,1.9938,0,0,2.0223,2.018,2.0174,2.0158,2.0125,2.0104,2.0077,2.0046,2.003,2.0005,1.998,1.9941,1.994,1.9921,1.991,1.9891,1.9864,1.9892,1.9891,1.9886,1.982,1.9819,1.9814,1.986,1.9859,1.9858,1.9822,0,2.0197,2.0149,2.0134,2.0093,2.0068,2.0057,2.0033,2.0009,1.9993,1.9968,1.995,1.9921,1.9924,1.9912,1.9892,1.9872,1.985,1.9874,1.9834,1.9833,1.984,1.9808,1.9807,1.9774,1.9817,1.9816,1.9816,0,2.0161,2.0135,2.0092,2.006,2.0049,2.0028,1.9996,1.9974,1.9945,1.9934,1.9912,1.9902,1.987,1.9879,1.9834,1.985,1.9832,1.982,1.9818,1.9812,1.9822,1.9799,1.9763,1.9758,1.9808,1.9809,1.9809,0,2.015,2.0105,2.0073,2.0059,2.0022,2.0007,1.999,1.9963,1.9944,1.9916,1.9903,1.9872,1.9854,1.9829,1.9809,1.9818,1.9765,1.9772,1.9753,1.9753,1.9741,1.9742,1.97,1.9733,1.9733,1.9733,1.9733,0,2.0122,2.0096,2.0068,2.0048,2.0016,1.9998,1.9967,1.995,1.9925,1.99,1.9888,1.9864,1.984,1.9813,1.9797,1.976,1.9753,1.9742,1.9737,1.9742,1.9743,1.9729,1.973,1.9732,1.9732,1.9732,1.9733,0,2.0105,2.0086,2.0049,2.0016,2.0007,1.9986,1.9956,1.9935,1.9918,1.9886,1.9877,1.985,1.9816,1.9794,1.9752,1.9741,1.97,1.9698,1.971,1.9707,1.9688,1.969,1.9635,1.9625,1.9667,1.9666,1.9666,0,2.0088,2.0067,2.0032,2.0014,1.9997,1.997,1.995,1.9931,1.991,1.9875,1.9857,1.9823,1.9795,1.9741,1.9716,1.9683,1.9678,1.9661,1.9673,1.9676,1.9675,1.9675,1.9672,1.9658,1.9658,1.9658,1.9658,0,2.0059,2.0049,2.0022,1.9991,1.9968,1.9943,1.9917,1.9903,1.9878,1.9856,1.9821,1.9799,1.9755,1.972,1.9684,1.9664,1.9656,1.9654,1.9647,1.9651,1.9658,1.9651,1.9702,1.9655,1.9656,1.9656,1.9656,1.9656,2.0039,2.0019,1.999,1.996,1.9938,1.9914,1.9891,1.9871,1.9843,1.9805,1.9795,1.9759,1.9728,1.9678,1.9658,1.9627,1.9629,1.962,1.9617,1.9615,1.9613,1.9664,1.9621,1.9621,1.9621,1.9621,1.9621,0,2.0007,1.9988,1.996,1.9924,1.9899,1.9894,1.9865,1.9844,1.9812,1.9784,1.9756,1.9715,1.968,1.9652,1.9616,1.9597,1.9592,1.9588,1.9588,1.9583,1.9615,1.9624,1.9592,1.9592,1.9592,1.9592,1.9592,1.9592,1.9988,1.9953,1.994,1.9892,1.9872,1.9837,1.982,1.9796,1.9774,1.9729,1.97,1.9682,1.9653,1.9615,1.9582,1.9574,1.956,1.9556,1.9548,1.9578,1.9581,1.9584,1.9592,1.9554,1.9554,1.9517,1.9517,1.9517]}]]